SCP
0 0 0 0 0 0 0 0 0 0 0 0 0 0 0 0 0 0 0 0 0 0 0 0 0 0 0 0 0 0 0 0 0 0 0 0 0 0 0 0 0 0 0
0 0 0 0 0 0 0 0 0 0 0 0 0 0 0 0 0 0 0 0 0 0 0 0 0 0 0 0 0 0 0 0 0 0 0 0 0 0 0 0 0 0 0
0 0 0 0 0 0 0 0 0 0 0 0 0 0 0 0 0 0 0 0 0 0 0 0 0 0 0 0 0 0 0 0 0 0 0 0 0 0 0 0 0 0 0
0 0 0 0 0 0 0 0 0 0 0 0 0 0 0 0 0 0 0 0 0 0 0 0 0 0 0 0 0 0 0 0 0 0 0 0 0 0 0 0 0 0 0
0 0 0 0 0 0 0 0 0 0 0 0 0 0 0 0 0 0 0 0 0 0 0 0 0 0 0 0 0 0 0 0 0 0 0 0 0 0 0 0 0 0 0
0 0 0 0 0 0 0 0 0 0 0 0 0 0 0 0 0 0 0 0 0 0 0 0 0 0 0 0 0 0 0 0 0 0 0 0 0 0 0 0 0 0 0
0 0 0 0 0 0 0 0 0 0 0 0 0 0 0 0 0 0 0 0 0 0 0 0 0 0 0 0 0 0 0 0 0 0 0 0 0 0 0 0 0 0 0
0 0 0 0 0 0 0 0 0 0 0 0 0 0 0 0 0 0 0 0 0 0 0 0 0 0 0 0 0 0 0 0 0 0 0 0 0 0 0 0 0 0 0
0 0 0 0 0 0 0 0 0 0 0 0 0 0 0 0 0 0 0 0 0 0 0 0 0 0 0 0 0 0 0 0 0 0 0 0 0 0 0 0 0 0 0
0 0 0 0 0 0 0 0 0 0 0 0 0 0 0 0 0 0 0 0 0 0 0 0 0 0 0 0 0 0 0 0 0 0 0 0 0 0 0 0 0 0 0
0 0 0 0 0 0 0 -0 -0 -0 -0 -0 -0 -0 -0 0 0 0 0 0 0 0 0 0 0 0 0 0 0 0 0 0 0 0 0 0 0 0 0 0 0 0 0
0 0 0 0 0 0 0 0 0 -0 -0 -0 -0 -0 -0 -0 0 0 0 0 0 0 0 0 0 0 0 0 0 0 0 0 0 0 0 0 0 0 0 0 0 0 0
0 0 0 0 0 0 0 0 0 0 -0 -0 -0 -0 0 0 -0 0 0 0 0 0 0 0 0 0 0 0 0 0 0 0 0 0 0 0 0 0 0 0 0 0 0
0 0 0 0 0 0 0 -0 0 0 0 0 0 0 0 0 0 0 0 0 0 0 0 0 0 0 0 0 0 0 0 0 0 0 0 0 0 0 0 0 0 0 0
0 0 0 0 0 0 0 0 0 0 0 0 0 0 0 0 0 0 0 0 0 0 0 0 0 0 0 0 0 0 0 0 0 0 0 0 0 0 0 0 0 0 0
0 0 0 0 0 0 0 0 0 0 0 0 0 0 0 0 0 0 0 0 0 0 0 0 0 0 0 0 0 0 0 0 0 0 0 0 0 0 0 0 0 0 0
0 0 0 0 0 0 0 0 0 0 0 0 0 0 0 0 0 0 0 0 0 0 0 0 0 0 0 0 0 0 0 0 0 0 0 0 0 0 0 0 0 0 0
0 0 0 0 0 0 0 0 0 0 0 0 0 0 0 0 0 0 0 0 0 0 0 0 0 0 0 0 0 0 0 0 0 0 0 0 0 0 0 0 0 0 0
0 0 0 0 0 0 0 0 0 0 0 0 0 0 0 0 0 0 0 0 0 0 0 0 0 0 0 0 0 0 0 0 0 0 0 0 0 0 0 0 0 0 0
0 0 0 0 0 0 0 0 0 0 0 0 0 0 0 0 0 0 0 0 0 0 0 0 0 0 0 0 0 0 0 0 0 0 0 0 0 0 0 0 0 0 0
0 0 0 0 0 0 0 0 0 0 0 0 0 0 0 0 0 0 0 0 0 0 0 0 0 0 0 0 0 0 0 0 0 0 0 0 0 0 0 0 0 0 0
0 0 0 0 0 0 0 0 0 0 0 0 0 0 0 0 0 0 0 0 0 0 0 0 0 0 0 0 0 0 0 0 0 0 0 0 0 0 0 0 0 0 0
0 0 0 0 0 0 0 0 0 0 0 0 0 0 0 0 0 0 0 0 0 0 0 0 0 0 0 0 0 0 0 0 0 0 0 0 0 0 0 0 0 0 0
0 0 0 0 0 0 0 0 0 0 0 0 0 0 0 0 0 0 0 0 0 0 0 0 0 -0 0 0 0 0 0 0 0 0 0 0 0 0 0 0 0 0 0
0 0 0 0 0 0 0 0 0 0 0 0 0 0 0 0 0 0 0 0 0 0 0 0 0 0 -0 0 0 0 0 0 0 0 0 0 0 0 0 0 0 0 0
0 0 0 0 0 0 0 0 0 0 0 0 0 0 0 0 0 0 0 0 0 0 0 0 0 0 -0 -0 0 0 0 0 0 0 0 0 0 0 0 0 0 0 0
Wind_Speed_500mb
21 26 28 26 23 20 19 12 6 14 10 15 12 11 15 17 19 23 29 37 46 36 33 24 33 26 29 24 19 11 5 7 7 5 2 1 5 8 8 8 8 8 6
18 24 28 28 25 22 16 10 3 13 18 12 12 9 11 14 15 12 18 29 36 31 32 31 33 37 37 38 32 23 17 6 8 5 3 1 7 11 13 13 13 11 9
16 23 29 33 29 27 24 20 15 6 6 10 11 13 14 13 14 14 15 19 23 21 19 31 35 36 40 41 35 19 9 13 14 15 11 3 2 5 6 13 16 16 15
14 20 26 34 38 35 30 25 17 12 5 4 8 8 12 15 14 14 11 15 17 15 18 20 28 37 38 36 24 18 17 14 14 15 19 17 13 2 7 8 13 17 19
12 18 23 30 37 42 43 39 29 19 13 13 7 6 8 8 13 15 14 15 15 16 12 19 27 33 35 32 27 22 15 15 16 14 14 15 19 21 18 13 20 14 19
9 15 20 26 35 41 45 47 49 43 32 19 14 9 8 10 8 9 13 14 12 10 7 10 20 26 28 30 31 29 28 17 10 19 19 18 13 12 14 17 21 17 19
7 11 18 23 33 40 44 46 48 49 48 44 35 24 14 9 6 5 8 10 13 12 9 7 10 19 26 35 39 34 31 24 14 21 26 23 22 24 21 18 25 18 25
7 7 14 21 29 35 39 41 43 44 45 44 42 41 37 26 13 5 4 9 12 13 16 14 16 18 24 33 43 44 39 31 23 21 26 28 23 25 26 24 27 22 25
10 6 8 14 20 25 29 33 35 36 36 37 38 40 39 35 31 22 12 9 11 17 22 24 26 27 25 30 34 34 36 31 26 21 22 26 26 24 26 27 32 25 15
13 6 5 12 16 19 22 23 25 28 30 31 32 32 32 31 30 27 23 18 14 18 23 26 29 30 32 33 35 33 31 34 29 23 30 25 26 28 26 28 30 34 32
14 6 5 15 20 21 22 21 21 20 20 23 26 28 28 27 26 26 24 20 19 18 20 25 29 30 34 36 35 35 35 38 34 30 30 30 26 27 28 28 29 32 35
18 9 13 18 21 21 22 25 29 29 28 25 21 21 24 26 26 24 24 23 21 19 19 22 28 32 35 36 39 39 38 37 37 33 32 36 25 26 28 30 28 30 32
21 13 16 20 25 23 24 28 31 30 29 28 27 25 24 24 24 24 24 25 24 24 22 21 25 30 34 38 38 37 37 43 41 39 33 35 30 26 27 30 29 29 31
24 18 15 19 23 26 29 31 33 35 31 28 27 29 29 29 27 25 24 24 26 26 25 25 24 29 33 38 39 41 37 41 43 43 38 32 38 31 29 33 29 29 29
22 17 21 28 32 34 36 34 33 33 35 34 30 30 31 32 32 31 30 29 28 27 28 27 26 27 30 36 38 40 38 39 40 45 43 33 28 32 37 35 29 27 28
31 26 30 31 32 34 37 40 37 37 39 41 38 33 30 31 32 31 30 28 27 27 27 29 28 26 28 31 38 41 42 39 40 41 44 42 31 36 29 31 30 27 28
24 29 31 35 37 38 38 39 41 43 43 45 44 43 36 32 30 29 26 25 25 26 27 28 29 28 28 28 34 41 43 43 39 41 42 44 40 38 31 32 27 30 31
21 26 31 36 37 38 40 44 44 45 50 52 50 49 45 37 32 29 28 28 28 29 29 30 30 31 31 31 31 37 43 44 41 39 42 40 37 35 39 38 25 26 29
29 30 30 32 35 41 45 46 45 46 46 48 54 56 54 45 38 33 33 30 30 31 31 32 32 33 31 32 33 32 39 42 42 39 41 45 42 40 40 35 26 27 31
39 40 39 38 38 37 41 47 47 47 45 41 40 47 54 51 46 39 37 35 34 34 34 34 34 35 36 34 33 35 34 39 40 41 40 46 45 42 45 35 23 28 32
45 44 43 40 39 41 44 45 47 48 47 48 46 48 52 56 50 47 43 42 40 38 39 38 37 35 35 36 36 33 36 34 38 41 39 42 46 42 42 38 26 30 32
43 43 43 45 48 50 52 52 51 53 51 51 50 51 54 57 57 56 52 50 48 46 42 41 40 40 39 37 36 37 33 32 36 40 38 38 43 43 44 44 28 39 36
32 44 53 59 58 59 60 61 60 60 61 58 56 57 54 56 60 63 60 58 56 53 49 44 41 42 42 41 39 35 34 31 35 39 37 39 39 43 45 48 36 46 43
42 53 61 65 68 65 63 62 63 63 65 67 66 63 62 60 62 68 69 67 64 61 57 51 45 43 43 41 42 41 32 30 28 38 41 37 38 46 46 50 47 48 44
48 54 61 66 69 67 67 64 62 63 64 65 67 71 69 63 62 66 72 75 73 69 64 59 53 48 47 41 43 44 43 33 25 31 40 41 39 46 52 54 55 53 52
67 69 70 72 73 72 74 73 68 64 66 68 66 66 67 67 64 65 68 74 79 77 73 67 64 58 51 45 48 46 42 39 28 33 39 47 48 51 59 64 64 59 57
Wind_Direction_500mb
350 353 354 350 346 335 321 313 258 179 214 259 251 212 227 248 238 236 228 230 224 225 229 264 246 206 201 203 218 206 202 238 206 151 97 286 271 261 247 237 230 217 221
1 5 6 10 9 5 5 352 34 179 189 186 236 243 235 225 231 234 228 228 229 222 225 244 219 207 216 212 196 206 218 222 228 184 165 306 325 277 257 251 246 241 237
18 16 21 19 23 27 33 40 51 85 167 221 230 232 232 239 223 218 225 216 218 226 236 243 229 214 214 215 222 220 193 222 224 219 181 183 175 283 291 258 252 250 249
41 34 31 34 33 38 39 46 46 58 99 163 207 209 218 226 222 215 201 210 208 207 231 247 235 230 230 218 200 187 201 226 243 233 234 233 238 181 321 303 269 259 254
58 49 44 43 45 48 50 49 52 57 61 74 107 175 191 204 211 202 198 202 204 210 230 242 248 245 233 216 189 197 206 229 246 250 256 253 254 252 244 288 293 281 263
73 61 55 53 55 55 55 55 54 54 56 57 67 73 99 132 152 165 183 189 188 203 246 263 252 246 237 219 201 195 192 199 267 281 269 266 264 288 258 250 267 283 278
100 62 47 45 49 50 48 49 50 50 49 52 54 53 54 64 74 135 177 195 204 215 220 271 275 253 240 228 219 228 233 236 227 277 280 267 262 256 253 242 256 266 280
131 70 55 47 40 38 34 34 36 40 44 44 47 47 46 44 37 14 289 239 226 230 227 233 251 254 250 244 241 253 252 237 235 255 276 273 268 270 268 255 254 256 267
167 121 60 43 30 23 26 26 24 26 28 31 34 37 38 36 33 29 5 309 278 256 254 246 237 246 251 254 246 251 250 239 230 253 266 274 277 276 274 268 255 248 270
180 149 56 13 3 0 4 12 14 13 14 15 17 23 26 25 22 22 16 359 322 288 274 261 259 258 250 249 248 253 249 238 242 241 273 278 283 284 279 273 261 247 234
194 191 334 344 337 337 338 343 352 358 0 360 2 5 8 11 12 7 5 1 349 325 296 276 267 263 265 253 249 252 255 240 242 242 259 265 274 284 286 278 264 254 239
209 243 308 324 327 323 321 324 328 333 338 343 346 347 348 352 353 353 350 348 346 339 321 293 275 266 263 262 256 251 253 253 249 243 253 271 276 283 289 284 269 255 244
222 270 303 313 323 313 311 311 305 305 312 318 325 332 335 335 335 338 339 339 339 336 329 313 288 272 266 265 265 261 256 257 258 245 245 260 272 285 290 284 270 256 247
234 278 294 308 306 301 300 294 283 280 285 290 303 313 320 325 328 331 334 335 335 333 329 322 308 286 269 263 264 263 260 257 255 251 245 255 271 275 293 284 270 255 246
252 264 291 305 311 309 302 291 281 270 268 272 283 295 307 314 319 322 323 327 330 331 329 323 317 306 285 270 264 262 262 264 259 251 245 246 264 269 278 281 266 251 242
269 283 297 302 302 302 299 293 282 269 264 263 266 273 289 302 307 313 317 319 321 325 326 325 322 314 304 283 269 264 262 261 260 253 247 243 241 262 278 277 262 243 236
280 294 296 301 301 295 292 293 288 275 266 261 260 263 270 284 295 302 309 317 328 334 332 327 325 323 313 301 279 267 264 263 259 254 246 244 239 251 263 266 252 242 236
295 297 298 297 297 297 290 287 289 286 273 270 262 259 258 267 280 292 299 305 312 321 332 337 332 326 323 311 300 277 264 262 259 253 243 238 241 244 254 256 242 239 238
302 297 296 298 299 298 296 295 292 287 282 277 267 263 259 256 267 279 288 293 303 312 319 326 334 333 327 320 307 295 274 263 259 252 245 235 232 243 250 244 236 237 237
304 293 289 291 295 296 299 296 297 293 285 280 274 269 258 252 260 272 284 285 291 299 308 314 321 331 334 327 317 303 289 268 259 252 243 237 231 228 242 241 237 240 239
293 287 284 284 289 293 294 296 297 294 289 282 274 269 258 249 254 262 275 282 286 290 296 302 306 312 323 335 329 317 301 280 260 256 248 239 235 227 233 235 226 247 239
291 288 284 284 292 295 296 297 294 290 289 285 278 270 259 249 251 256 263 272 280 285 290 296 300 301 307 319 331 327 310 286 265 258 250 241 236 235 235 235 222 244 229
296 290 290 291 292 295 296 292 289 288 286 284 281 276 270 256 250 254 257 264 272 278 283 288 295 300 301 305 315 326 319 294 267 258 252 242 234 231 235 241 229 238 229
293 288 290 292 294 294 294 293 292 287 284 280 277 276 275 270 259 252 252 255 260 267 273 279 287 294 299 303 307 310 317 304 274 265 254 243 238 228 230 236 232 232 231
291 291 292 293 292 294 291 290 290 290 287 281 275 272 272 271 269 262 254 252 255 259 264 270 278 285 292 300 299 302 305 303 284 270 260 249 240 226 221 227 232 230 227
296 295 294 292 291 290 288 288 288 287 286 283 279 274 270 265 264 263 260 253 251 254 258 262 268 275 282 291 292 293 291 295 268 261 262 257 247 236 226 225 228 227 228
Wind_Speed_850mb
21 26 28 26 23 20 19 12 6 14 10 15 12 11 15 17 19 23 29 37 46 36 33 24 33 26 29 24 19 11 5 7 7 5 2 1 5 8 8 8 8 8 6
18 24 28 28 25 22 16 10 3 13 18 12 12 9 11 14 15 12 18 29 36 31 32 31 33 37 37 38 32 23 17 6 8 5 3 1 7 11 13 13 13 11 9
16 23 29 33 29 27 24 20 15 6 6 10 11 13 14 13 14 14 15 19 23 21 19 31 35 36 40 41 35 19 9 13 14 15 11 3 2 5 6 13 16 16 15
14 20 26 34 38 35 30 25 17 12 5 4 8 8 12 15 14 14 11 15 17 15 18 20 28 37 38 36 24 18 17 14 14 15 19 17 13 2 7 8 13 17 19
12 18 23 30 37 42 43 39 29 19 13 13 7 6 8 8 13 15 14 15 15 16 12 19 27 33 35 32 27 22 15 15 16 14 14 15 19 21 18 13 20 14 19
9 15 20 26 35 41 45 47 49 43 32 19 14 9 8 10 8 9 13 14 12 10 7 10 20 26 28 30 31 29 28 17 10 19 19 18 13 12 14 17 21 17 19
7 11 18 23 33 40 44 46 48 49 48 44 35 24 14 9 6 5 8 10 13 12 9 7 10 19 26 35 39 34 31 24 14 21 26 23 22 24 21 18 25 18 25
7 7 14 21 29 35 39 41 43 44 45 44 42 41 37 26 13 5 4 9 12 13 16 14 16 18 24 33 43 44 39 31 23 21 26 28 23 25 26 24 27 22 25
10 6 8 14 20 25 29 33 35 36 36 37 38 40 39 35 31 22 12 9 11 17 22 24 26 27 25 30 34 34 36 31 26 21 22 26 26 24 26 27 32 25 15
13 6 5 12 16 19 22 23 25 28 30 31 32 32 32 31 30 27 23 18 14 18 23 26 29 30 32 33 35 33 31 34 29 23 30 25 26 28 26 28 30 34 32
14 6 5 15 20 21 22 21 21 20 20 23 26 28 28 27 26 26 24 20 19 18 20 25 29 30 34 36 35 35 35 38 34 30 30 30 26 27 28 28 29 32 35
18 9 13 18 21 21 22 25 29 29 28 25 21 21 24 26 26 24 24 23 21 19 19 22 28 32 35 36 39 39 38 37 37 33 32 36 25 26 28 30 28 30 32
21 13 16 20 25 23 24 28 31 30 29 28 27 25 24 24 24 24 24 25 24 24 22 21 25 30 34 38 38 37 37 43 41 39 33 35 30 26 27 30 29 29 31
24 18 15 19 23 26 29 31 33 35 31 28 27 29 29 29 27 25 24 24 26 26 25 25 24 29 33 38 39 41 37 41 43 43 38 32 38 31 29 33 29 29 29
22 17 21 28 32 34 36 34 33 33 35 34 30 30 31 32 32 31 30 29 28 27 28 27 26 27 30 36 38 40 38 39 40 45 43 33 28 32 37 35 29 27 28
31 26 30 31 32 34 37 40 37 37 39 41 38 33 30 31 32 31 30 28 27 27 27 29 28 26 28 31 38 41 42 39 40 41 44 42 31 36 29 31 30 27 28
24 29 31 35 37 38 38 39 41 43 43 45 44 43 36 32 30 29 26 25 25 26 27 28 29 28 28 28 34 41 43 43 39 41 42 44 40 38 31 32 27 30 31
21 26 31 36 37 38 40 44 44 45 50 52 50 49 45 37 32 29 28 28 28 29 29 30 30 31 31 31 31 37 43 44 41 39 42 40 37 35 39 38 25 26 29
29 30 30 32 35 41 45 46 45 46 46 48 54 56 54 45 38 33 33 30 30 31 31 32 32 33 31 32 33 32 39 42 42 39 41 45 42 40 40 35 26 27 31
39 40 39 38 38 37 41 47 47 47 45 41 40 47 54 51 46 39 37 35 34 34 34 34 34 35 36 34 33 35 34 39 40 41 40 46 45 42 45 35 23 28 32
45 44 43 40 39 41 44 45 47 48 47 48 46 48 52 56 50 47 43 42 40 38 39 38 37 35 35 36 36 33 36 34 38 41 39 42 46 42 42 38 26 30 32
43 43 43 45 48 50 52 52 51 53 51 51 50 51 54 57 57 56 52 50 48 46 42 41 40 40 39 37 36 37 33 32 36 40 38 38 43 43 44 44 28 39 36
32 44 53 59 58 59 60 61 60 60 61 58 56 57 54 56 60 63 60 58 56 53 49 44 41 42 42 41 39 35 34 31 35 39 37 39 39 43 45 48 36 46 43
42 53 61 65 68 65 63 62 63 63 65 67 66 63 62 60 62 68 69 67 64 61 57 51 45 43 43 41 42 41 32 30 28 38 41 37 38 46 46 50 47 48 44
48 54 61 66 69 67 67 64 62 63 64 65 67 71 69 63 62 66 72 75 73 69 64 59 53 48 47 41 43 44 43 33 25 31 40 41 39 46 52 54 55 53 52
67 69 70 72 73 72 74 73 68 64 66 68 66 66 67 67 64 65 68 74 79 77 73 67 64 58 51 45 48 46 42 39 28 33 39 47 48 51 59 64 64 59 57
Wind_Direction_850mb
350 353 354 350 346 335 321 313 258 179 214 259 251 212 227 248 238 236 228 230 224 225 229 264 246 206 201 203 218 206 202 238 206 151 97 286 271 261 247 237 230 217 221
1 5 6 10 9 5 5 352 34 179 189 186 236 243 235 225 231 234 228 228 229 222 225 244 219 207 216 212 196 206 218 222 228 184 165 306 325 277 257 251 246 241 237
18 16 21 19 23 27 33 40 51 85 167 221 230 232 232 239 223 218 225 216 218 226 236 243 229 214 214 215 222 220 193 222 224 219 181 183 175 283 291 258 252 250 249
41 34 31 34 33 38 39 46 46 58 99 163 207 209 218 226 222 215 201 210 208 207 231 247 235 230 230 218 200 187 201 226 243 233 234 233 238 181 321 303 269 259 254
58 49 44 43 45 48 50 49 52 57 61 74 107 175 191 204 211 202 198 202 204 210 230 242 248 245 233 216 189 197 206 229 246 250 256 253 254 252 244 288 293 281 263
73 61 55 53 55 55 55 55 54 54 56 57 67 73 99 132 152 165 183 189 188 203 246 263 252 246 237 219 201 195 192 199 267 281 269 266 264 288 258 250 267 283 278
100 62 47 45 49 50 48 49 50 50 49 52 54 53 54 64 74 135 177 195 204 215 220 271 275 253 240 228 219 228 233 236 227 277 280 267 262 256 253 242 256 266 280
131 70 55 47 40 38 34 34 36 40 44 44 47 47 46 44 37 14 289 239 226 230 227 233 251 254 250 244 241 253 252 237 235 255 276 273 268 270 268 255 254 256 267
167 121 60 43 30 23 26 26 24 26 28 31 34 37 38 36 33 29 5 309 278 256 254 246 237 246 251 254 246 251 250 239 230 253 266 274 277 276 274 268 255 248 270
180 149 56 13 3 0 4 12 14 13 14 15 17 23 26 25 22 22 16 359 322 288 274 261 259 258 250 249 248 253 249 238 242 241 273 278 283 284 279 273 261 247 234
194 191 334 344 337 337 338 343 352 358 0 360 2 5 8 11 12 7 5 1 349 325 296 276 267 263 265 253 249 252 255 240 242 242 259 265 274 284 286 278 264 254 239
209 243 308 324 327 323 321 324 328 333 338 343 346 347 348 352 353 353 350 348 346 339 321 293 275 266 263 262 256 251 253 253 249 243 253 271 276 283 289 284 269 255 244
222 270 303 313 323 313 311 311 305 305 312 318 325 332 335 335 335 338 339 339 339 336 329 313 288 272 266 265 265 261 256 257 258 245 245 260 272 285 290 284 270 256 247
234 278 294 308 306 301 300 294 283 280 285 290 303 313 320 325 328 331 334 335 335 333 329 322 308 286 269 263 264 263 260 257 255 251 245 255 271 275 293 284 270 255 246
252 264 291 305 311 309 302 291 281 270 268 272 283 295 307 314 319 322 323 327 330 331 329 323 317 306 285 270 264 262 262 264 259 251 245 246 264 269 278 281 266 251 242
269 283 297 302 302 302 299 293 282 269 264 263 266 273 289 302 307 313 317 319 321 325 326 325 322 314 304 283 269 264 262 261 260 253 247 243 241 262 278 277 262 243 236
280 294 296 301 301 295 292 293 288 275 266 261 260 263 270 284 295 302 309 317 328 334 332 327 325 323 313 301 279 267 264 263 259 254 246 244 239 251 263 266 252 242 236
295 297 298 297 297 297 290 287 289 286 273 270 262 259 258 267 280 292 299 305 312 321 332 337 332 326 323 311 300 277 264 262 259 253 243 238 241 244 254 256 242 239 238
302 297 296 298 299 298 296 295 292 287 282 277 267 263 259 256 267 279 288 293 303 312 319 326 334 333 327 320 307 295 274 263 259 252 245 235 232 243 250 244 236 237 237
304 293 289 291 295 296 299 296 297 293 285 280 274 269 258 252 260 272 284 285 291 299 308 314 321 331 334 327 317 303 289 268 259 252 243 237 231 228 242 241 237 240 239
293 287 284 284 289 293 294 296 297 294 289 282 274 269 258 249 254 262 275 282 286 290 296 302 306 312 323 335 329 317 301 280 260 256 248 239 235 227 233 235 226 247 239
291 288 284 284 292 295 296 297 294 290 289 285 278 270 259 249 251 256 263 272 280 285 290 296 300 301 307 319 331 327 310 286 265 258 250 241 236 235 235 235 222 244 229
296 290 290 291 292 295 296 292 289 288 286 284 281 276 270 256 250 254 257 264 272 278 283 288 295 300 301 305 315 326 319 294 267 258 252 242 234 231 235 241 229 238 229
293 288 290 292 294 294 294 293 292 287 284 280 277 276 275 270 259 252 252 255 260 267 273 279 287 294 299 303 307 310 317 304 274 265 254 243 238 228 230 236 232 232 231
291 291 292 293 292 294 291 290 290 290 287 281 275 272 272 271 269 262 254 252 255 259 264 270 278 285 292 300 299 302 305 303 284 270 260 249 240 226 221 227 232 230 227
296 295 294 292 291 290 288 288 288 287 286 283 279 274 270 265 264 263 260 253 251 254 258 262 268 275 282 291 292 293 291 295 268 261 262 257 247 236 226 225 228 227 228